Weather History for Sparta, TN

Change the Weather History Date:

Saturday, February 2, 2013

  Actual Average (KCSV) Record (KCSV)
Temperature  
Mean Temperature 28 °F 37 °F  
Max Temperature 37 °F 46 °F 70 °F (1989)
Min Temperature 19 °F 28 °F -6 °F (1965)
Degree Days  
Heating Degree Days 37    
Month to date heating degree days  
Since 1 July heating degree days  
Cooling Degree Days 0    
Month to date cooling degree days  
Year to date cooling degree days  
Moisture  
Dew Point 27 °F    
Average Humidity 92    
Maximum Humidity 100    
Minimum Humidity 74    
Precipitation  
Precipitation 0.00 in 0.16 in 1.22 in (1956)
Month to date precipitation 0.32  
Year to date precipitation 5.08  
Sea Level Pressure  
Sea Level Pressure 30.17 in    
Wind  
Wind Speed 4 mph (SSW)    
Max Wind Speed 13 mph    
Max Gust Speed -    
Visibility 9 miles    
Events      
T = Trace of Precipitation, MM = Missing Value Source: NWS Daily Summary

Daily Weather History Graph

Daily Weather History Graph

Search for Another Location

Airport:

Trip Planner

Search our weather history database for the weather conditions in past years. The results will help you decide how hot, cold, wet, or windy it might be!

Date:

Astronomy

Feb. 02, 2013 Rise Set
Actual Time 6:41 AM CST 5:10 PM CST
Civil Twilight 6:14 AM CST 5:37 PM CST
Nautical Twilight 5:44 AM CST 6:07 PM CST
Astronomical Twilight 5:14 AM CST 6:38 PM CST
Moon No Moon Rise 10:06 AM CST
Length of Visible Light 11h 22m
Length of Day
10h 28m
Waning Gibbous, 59% of the Moon is Illuminated
Feb 2
Waning Gibbous
Feb 3
Last Quarter
Feb 10
New
Feb 17
First Quarter
Feb 25
Full

Hourly Weather History & Observations

Time (CST) Temp. Windchill Dew Point Humidity Pressure Visibility Wind Dir Wind Speed Gust Speed Precip Events Conditions
12:15 AM 21.2 °F 14.9 °F 17.6 °F 86% 30.30 in 10.0 mi SSE 4.6 mph - N/A   Clear
12:55 AM 21.2 °F 14.9 °F 17.6 °F 86% 30.30 in 10.0 mi SSW 4.6 mph - N/A   Clear
1:15 AM 21.2 °F 16.4 °F 17.6 °F 86% 30.29 in 10.0 mi South 3.5 mph - N/A   Clear
1:55 AM 21.2 °F - 17.6 °F 86% 30.29 in 10.0 mi Calm Calm - N/A   Clear
2:15 AM 21.2 °F - 17.6 °F 86% 30.29 in 10.0 mi Calm Calm - N/A   Clear
2:35 AM 19.4 °F - 17.6 °F 93% 30.29 in 10.0 mi Calm Calm - N/A   Clear
3:15 AM 19.4 °F - 17.6 °F 93% 30.28 in 10.0 mi Calm Calm - N/A   Clear
3:35 AM 19.4 °F 14.3 °F 17.6 °F 93% 30.28 in 10.0 mi South 3.5 mph - N/A   Clear
3:55 AM 21.2 °F 16.4 °F 17.6 °F 86% 30.27 in 10.0 mi South 3.5 mph - N/A   Clear
4:15 AM 21.2 °F - 17.6 °F 86% 30.27 in 10.0 mi Calm Calm - N/A   Clear
4:35 AM 19.4 °F - 17.6 °F 93% 30.27 in 10.0 mi Calm Calm - N/A   Clear
4:55 AM 19.4 °F - 17.6 °F 93% 30.27 in 10.0 mi Calm Calm - N/A   Partly Cloudy
5:15 AM 19.4 °F - 17.6 °F 93% 30.26 in 10.0 mi Calm Calm - N/A   Mostly Cloudy
5:35 AM 21.2 °F 16.4 °F 17.6 °F 86% 30.25 in 10.0 mi South 3.5 mph - N/A   Overcast
5:55 AM 24.8 °F 20.5 °F 19.4 °F 80% 30.26 in 10.0 mi SSW 3.5 mph - N/A   Mostly Cloudy
6:15 AM 24.8 °F 19.1 °F 17.6 °F 74% 30.23 in 10.0 mi ESE 4.6 mph - N/A   Clear
6:35 AM 24.8 °F 19.1 °F 19.4 °F 80% 30.26 in 10.0 mi West 4.6 mph - N/A   Scattered Clouds
6:55 AM 24.8 °F 16.9 °F 17.6 °F 74% 30.28 in 10.0 mi SW 6.9 mph - N/A   Partly Cloudy
7:15 AM 24.8 °F - 17.6 °F 74% 30.28 in 10.0 mi Calm Calm - N/A   Partly Cloudy
7:35 AM 24.8 °F 17.9 °F 19.4 °F 80% 30.29 in 10.0 mi Variable 5.8 mph - N/A   Scattered Clouds
7:55 AM 24.8 °F 19.1 °F 21.2 °F 86% 30.27 in 2.5 mi South 4.6 mph - N/A   Mostly Cloudy
8:15 AM 24.8 °F 17.9 °F 23.0 °F 93% 30.27 in 0.5 mi South 5.8 mph - N/A   Overcast
8:35 AM 24.8 °F 16.9 °F 23.0 °F 93% 30.27 in 0.2 mi South 6.9 mph - N/A   Overcast
8:55 AM 23.0 °F 15.8 °F 23.0 °F 100% 30.26 in 1.2 mi South 5.8 mph - N/A   Overcast
9:15 AM 24.8 °F 17.9 °F 23.0 °F 93% 30.25 in 3.0 mi South 5.8 mph - N/A   Overcast
9:35 AM 24.8 °F 16.9 °F 24.8 °F 100% 30.24 in 2.5 mi South 6.9 mph - N/A   Overcast
9:55 AM 26.6 °F 18.2 °F 24.8 °F 93% 30.22 in 5.0 mi South 8.1 mph - N/A   Mostly Cloudy
10:15 AM 26.6 °F 17.5 °F 26.6 °F 100% 30.21 in 1.5 mi South 9.2 mph - N/A   Overcast
10:35 AM 26.6 °F 20.0 °F 26.6 °F 100% 30.20 in 2.0 mi South 5.8 mph - N/A   Overcast
10:55 AM 26.6 °F 19.1 °F 26.6 °F 100% 30.18 in 10.0 mi South 6.9 mph - N/A   Partly Cloudy
11:15 AM 28.4 °F 21.2 °F 28.4 °F 100% 30.17 in 10.0 mi South 6.9 mph - N/A   Partly Cloudy
11:35 AM 30.2 °F 22.6 °F 28.4 °F 93% 30.15 in 10.0 mi South 8.1 mph - N/A   Scattered Clouds
11:55 AM 30.2 °F 24.3 °F 28.4 °F 93% 30.14 in 10.0 mi South 5.8 mph - N/A   Scattered Clouds
12:15 PM 33.8 °F 27.7 °F 30.2 °F 87% 30.13 in 10.0 mi SW 6.9 mph - N/A   Partly Cloudy
12:35 PM 33.8 °F 27.7 °F 30.2 °F 87% 30.11 in 10.0 mi South 6.9 mph - N/A   Unknown
12:55 PM 35.6 °F 27.1 °F 30.2 °F 81% 30.10 in 10.0 mi SW 12.7 mph - N/A   Clear
1:15 PM 35.6 °F 29.2 °F 32.0 °F 87% 30.09 in 10.0 mi SW 8.1 mph - N/A   Clear
1:35 PM 35.6 °F 29.9 °F 32.0 °F 87% 30.09 in 10.0 mi SW 6.9 mph - N/A   Clear
1:55 PM 37.4 °F 30.8 °F 33.8 °F 87% 30.08 in 10.0 mi SW 9.2 mph - N/A   Clear
2:15 PM 37.4 °F 32.8 °F 33.8 °F 87% 30.09 in 10.0 mi WSW 5.8 mph - N/A   Clear
2:35 PM 37.4 °F 34.9 °F 32.0 °F 81% 30.09 in 10.0 mi West 3.5 mph - N/A   Clear
2:55 PM 37.4 °F - 32.0 °F 81% 30.08 in 10.0 mi Calm Calm - N/A   Partly Cloudy
3:15 PM 35.6 °F 30.7 °F 33.8 °F 93% 30.08 in 6.0 mi WSW 5.8 mph - N/A   Mostly Cloudy
3:35 PM 35.6 °F 30.7 °F 35.6 °F 100% 30.07 in 10.0 mi WSW 5.8 mph - N/A   Mostly Cloudy
3:55 PM 35.6 °F 31.7 °F 35.6 °F 100% 30.07 in 10.0 mi WSW 4.6 mph - N/A   Scattered Clouds
4:15 PM 35.6 °F 31.7 °F 35.6 °F 100% 30.07 in 10.0 mi SSW 4.6 mph - N/A   Partly Cloudy
4:35 PM 35.6 °F - 33.8 °F 93% 30.05 in 10.0 mi Calm Calm - N/A   Scattered Clouds
4:55 PM 35.6 °F - 33.8 °F 93% 30.05 in 10.0 mi Calm Calm - N/A   Scattered Clouds
5:15 PM 35.6 °F - 33.8 °F 93% 30.06 in 10.0 mi Calm Calm - N/A   Mostly Cloudy
5:55 PM 33.8 °F - 33.8 °F 100% 30.05 in 10.0 mi Calm Calm - N/A   Mostly Cloudy
6:15 PM 33.8 °F - 33.8 °F 100% 30.06 in 10.0 mi Calm Calm - N/A   Mostly Cloudy
6:55 PM 33.8 °F 30.8 °F 33.8 °F 100% 30.08 in 10.0 mi North 3.5 mph - N/A   Mostly Cloudy
7:15 PM 33.8 °F - 33.8 °F 100% 30.09 in 10.0 mi Calm Calm - N/A   Mostly Cloudy
7:35 PM 33.8 °F - 33.8 °F 100% 30.10 in 10.0 mi Calm Calm - N/A   Scattered Clouds
7:55 PM 33.8 °F 28.6 °F 33.8 °F 100% 30.11 in 10.0 mi NNW 5.8 mph - N/A   Scattered Clouds
8:15 PM 33.8 °F 29.6 °F 33.8 °F 100% 30.11 in 10.0 mi NW 4.6 mph - N/A   Mostly Cloudy
8:35 PM 33.8 °F 27.7 °F 33.8 °F 100% 30.12 in 10.0 mi WNW 6.9 mph - N/A   Mostly Cloudy
8:55 PM 33.8 °F 28.6 °F 33.8 °F 100% 30.12 in 10.0 mi NW 5.8 mph - N/A   Mostly Cloudy
9:15 PM 33.8 °F - 32.0 °F 93% 30.12 in 10.0 mi Calm Calm - N/A   Partly Cloudy
9:35 PM 33.8 °F - 32.0 °F 93% 30.12 in 10.0 mi Calm Calm - N/A   Scattered Clouds
9:55 PM 33.8 °F - 32.0 °F 93% 30.12 in 10.0 mi Calm Calm - N/A   Mostly Cloudy
10:15 PM 33.8 °F 30.8 °F 32.0 °F 93% 30.12 in 10.0 mi WSW 3.5 mph - N/A   Mostly Cloudy
10:35 PM 32.0 °F 27.5 °F 32.0 °F 100% 30.11 in 10.0 mi WSW 4.6 mph - N/A   Mostly Cloudy
10:55 PM 32.0 °F 28.7 °F 32.0 °F 100% 30.11 in 10.0 mi WSW 3.5 mph - N/A   Mostly Cloudy
11:15 PM 32.0 °F 28.7 °F 30.2 °F 93% 30.11 in 10.0 mi SW 3.5 mph - N/A   Overcast
11:35 PM 32.0 °F - 30.2 °F 93% 30.11 in 10.0 mi Calm Calm - N/A   Mostly Cloudy
11:55 PM 32.0 °F - 32.0 °F 100% 30.10 in 10.0 mi Calm Calm - N/A   Mostly Cloudy